Regional Weather Roundup
Issued by NWS

Home | Current Version | Previous Version | Graphics & Text | Print | Product List | Glossary On
Versions: 1 2 3 4 5 6 7 8 9 10 11 12 13 14 15 16 17 18 19 20 21 22 23 24 25 26 27 28 29 30 31 32 33 34 35 36 37 38 39 40 41 42 43 44 45 46 47 48 49 50
000
ASUS45 KTFX 071710
RWRMT
MONTANA REGIONAL WEATHER ROUNDUP
NATIONAL WEATHER SERVICE GREAT FALLS MT
1100 AM MDT TUE JUL 07 2015

NOTE: "FAIR" INDICATES FEW OR NO CLOUDS BELOW 12000 FEET WITH NO
SIGNIFICANT WEATHER AND/OR OBSTRUCTIONS TO VISIBILITY.

MTZ001>007-043-071800-
WEST OF THE DIVIDE

CITY           SKY/WX    TMP DP  RH WIND       PRES   REMARKS
KALISPELL      LGT RAIN  58  55  90 N8        30.14R FOG
MISSOULA       MOSUNNY   75  44  33 N16G26    30.07F
BUTTE          SUNNY     73  29  19 CALM      30.14F
MULLAN PASS    MOSUNNY   67  46  47 CALM      30.20R
DEER LODGE       N/A     73  39  29 CALM      30.14F
EUREKA           N/A     66  55  68 SE6       30.12F
HAMILTON         N/A     66  45  45 N8        30.05S
LIBBY            N/A     64  57  77 CALM      30.11F
PLAINS           N/A     78  47  33 CALM      30.08S
RONAN            N/A     67  54  63 N20       30.14R
THOMPSON FALLS   N/A     77  46  33 NE16      30.09F
$$

MTZ008-052>055-071800-
SOUTHWEST MONTANA

CITY           SKY/WX    TMP DP  RH WIND       PRES   REMARKS
BOZEMAN        SUNNY     72  51  47 CALM      30.11F
DILLON         SUNNY     72  48  42 CALM      30.12F
W YELLOWSTONE  SUNNY     64  48  55 NE3       30.22F
THREE FORKS      N/A     73  67  81 N1        30.08F
$$

MTZ009-010-012-014-046-048-049-054-071800-
EAST SLOPES AND CENTRAL MONTANA

CITY           SKY/WX    TMP DP  RH WIND       PRES   REMARKS
CUT BANK       CLOUDY    64  47  53 N7        30.17R
GREAT FALLS    PTSUNNY   63  50  62 NW8       30.15S
MALMSTROM AFB  PTSUNNY   64  52  65 W9        30.15S
HELENA         PTSUNNY   66  48  52 N15       30.13S
CONRAD           N/A     60  56  87 W3        30.18R
$$

MTZ011-013-016-021-045-047-050-051-071800-
NORTH CENTRAL MONTANA

CITY           SKY/WX    TMP DP  RH WIND       PRES   REMARKS
HAVRE          PTSUNNY   69  53  56 W6        30.08F
LEWISTOWN      SUNNY     69  49  48 NW5       30.13
CHINOOK          N/A     70  54  56 W9        30.07S
FORT BENTON      N/A     68  52  56 SW5       30.13S
$$

MTZ017>020-022>027-061-062-071800-
NORTHEAST MONTANA

CITY           SKY/WX    TMP DP  RH WIND       PRES   REMARKS
GLASGOW        SUNNY     72  52  49 VRB3      30.04S
JORDAN           N/A     74  44  34 E6        30.04F
SIDNEY         MOSUNNY   72  55  56 SE5       30.06F
WOLF POINT     SUNNY     72  55  55 CALM      30.04F
MALTA            N/A     73  52  47 CALM      30.00F
PLENTYWOOD       N/A     70  55  60 SW5       30.05F
POPLAR           N/A     72  55  56 CALM      30.05F
SCOBEY           N/A     72  52  49 S2        30.03F
$$

MTZ028>42-056>058-071800-
SOUTHCENTRAL AND SOUTHEAST MONTANA

CITY           SKY/WX    TMP DP  RH WIND       PRES   REMARKS
BAKER          MOSUNNY   73  57  57 S16       30.06F
BILLINGS       MOSUNNY   71  54  54 VRB3      30.08F
LIVINGSTON     SUNNY     72  51  47 NW3       30.10F
MILES CITY     SUNNY     72  54  53 VRB5      30.03F
EKALAKA          N/A     73  55  53 S7        30.05F
FORSYTH          N/A     72  52  49 N3        30.04F
LAUREL           N/A     71  53  52 CALM      30.06F
ROUNDUP          N/A     74  43  32 CALM      29.98F
$$

REGIONAL REPORTS...DAKOTAS

CITY           SKY/WX    TMP DP  RH WIND       PRES   REMARKS
WILLISTON      MOSUNNY   72  56  57 S8        30.06F
MINOT          SUNNY     69  51  52 S10G18    30.09F
DICKINSON      CLOUDY    70  56  61 S13       30.08F
BEACH          CLOUDY    68  57  68 SE13      30.08S
CROSBY         FAIR      70  59  68 S13       30.06F
BISMARCK       SUNNY     68  53  58 S13G20    30.14F
GRAND FORKS    SUNNY     67  43  41 SW7       30.15F
FARGO          SUNNY     68  41  37 CALM      30.18F
BUFFALO SD       N/A     75  56  51 SE15G21   30.02F
RAPID CITY     MOSUNNY   71  59  65 S18       30.12F
$$

REGIONAL REPORTS...WYOMING/IDAHO/WASHINGTON

CITY           SKY/WX    TMP DP  RH WIND       PRES   REMARKS
GILLETTE       SUNNY     74  53  48 S13       30.10F
SHERIDAN       MOSUNNY   73  52  47 CALM      30.08F
BUFFALO WY     SUNNY     71  53  52 N5        30.13S
CODY           MOSUNNY   70  52  52 NE5       30.13S
YELLOWSTONE LA   N/A     60  47  61 VRB5      30.30F
SALMON         SUNNY     72  48  43 CALM      30.06F
BOISE          PTSUNNY   83  51  33 W8        30.00S
SPOKANE        MOSUNNY   79  50  36 NE10      29.98S
$$

REGIONAL REPORTS...ALBERTA

CITY           SKY/WX    TMP DP  RH WIND       PRES   REMARKS
EDMONTON       MOSUNNY   57  36  44 N8G17     30.17F
CALGARY        PTSUNNY   61  50  67 N7        30.19S
LETHBRIDGE     PTSUNNY   64  54  68 NW16      30.14F
MEDICINE HAT   PTSUNNY   75  48  38 VRB10     30.07F
WATERTON GATE    N/A     61  50  67 S5          N/A
CARDSTON         N/A     64  54  68 NW5         N/A
MILK RIVER       N/A     63  52  67 N9          N/A
ONEFOUR          N/A     64  50  59 NW14        N/A
$$

REGIONAL REPORTS...SASKATCHEWAN

CITY           SKY/WX    TMP DP  RH WIND       PRES   REMARKS
SWIFT CURRENT  SUNNY     70  48  46 NW9       30.03F
REGINA         PTSUNNY   72  54  53 W10       30.00F
CYPRESS HILLS    N/A     64  45  48 NW7         N/A
VAL MARIE        N/A     73  48  40 W6          N/A
ROCKGLEN         N/A     72  43  35 SW10        N/A
$$



USA.gov is the U.S. government's official web portal to all federal, state and local government web resources and services.